Weather History for Phoenix, AZ

Change the Weather History Date:

Monday, May 6, 2013

  Actual Average Record
Temperature  
Mean Temperature 78 °F 79 °F  
Max Temperature 87 °F 92 °F 105 °F (1947)
Min Temperature 69 °F 67 °F 44 °F (1964)
Degree Days  
Heating Degree Days 0 0  
Month to date heating degree days 0 0  
Since 1 July heating degree days 881 934  
Cooling Degree Days 13 14  
Month to date cooling degree days 100 81  
Year to date cooling degree days 604 436  
Growing Degree Days 28 (Base 50)    
Moisture  
Dew Point 41 °F    
Average Humidity 25    
Maximum Humidity 37    
Minimum Humidity 12    
Precipitation  
Precipitation 0.00 in 0.00 in 0.12 in (1900)
Month to date precipitation 0.00 0.02  
Year to date precipitation 2.61 3.12  
Snow  
Snow 0.00 in - - ()
Month to date snowfall 0.0  
Year to date snowfall 0.0  
Since 1 July snowfall 0.0  
Snow Depth 0.00 in    
Sea Level Pressure  
Sea Level Pressure 29.84 in    
Wind  
Wind Speed 8 mph (SSW)    
Max Wind Speed 18 mph    
Max Gust Speed 23 mph    
Visibility 10 miles    
Events      
T = Trace of Precipitation, MM = Missing Value Source: NWS Daily Summary

Daily Weather History Graph

Daily Weather History Graph

Search for Another Location

Airport:

Trip Planner

Search our weather history database for the weather conditions in past years. The results will help you decide how hot, cold, wet, or windy it might be!

Date:

Astronomy

May. 06, 2013 Rise Set
Actual Time 5:34 AM MST 7:14 PM MST
Civil Twilight 5:07 AM MST 7:41 PM MST
Nautical Twilight 4:35 AM MST 8:14 PM MST
Astronomical Twilight 4:01 AM MST 8:48 PM MST
Moon 3:29 AM MST (5/6) 4:26 PM MST (5/6)
Length of Visible Light 14h 33m
Length of Day
13h 40m
Waning Crescent, 10% of the Moon is Illuminated
May 6
Waning Crescent
May 9
New
May 17
First Quarter
May 24
Full
May 31
Last Quarter

Hourly Weather History & Observations

Time (MST) Temp. Dew Point Humidity Pressure Visibility Wind Dir Wind Speed Gust Speed Precip Events Conditions
12:51 AM 75.0 °F 33.1 °F 22% 29.81 in 10.0 mi WSW 10.4 mph - N/A   Mostly Cloudy
1:51 AM 73.9 °F 30.9 °F 21% 29.80 in 10.0 mi SE 5.8 mph - N/A   Mostly Cloudy
2:51 AM 73.0 °F 37.9 °F 28% 29.80 in 10.0 mi SE 9.2 mph - N/A   Mostly Cloudy
3:51 AM 73.0 °F 41.0 °F 31% 29.81 in 10.0 mi South 9.2 mph - N/A   Mostly Cloudy
4:51 AM 71.1 °F 41.0 °F 34% 29.82 in 10.0 mi SE 3.5 mph - N/A   Mostly Cloudy
5:51 AM 69.1 °F 43.0 °F 39% 29.85 in 10.0 mi SE 6.9 mph - N/A   Scattered Clouds
6:51 AM 70.0 °F 42.1 °F 36% 29.88 in 10.0 mi SSE 8.1 mph - N/A   Partly Cloudy
7:51 AM 72.0 °F 42.1 °F 34% 29.89 in 10.0 mi SE 11.5 mph - N/A   Partly Cloudy
8:51 AM 75.0 °F 42.1 °F 31% 29.90 in 10.0 mi South 6.9 mph - N/A   Scattered Clouds
9:51 AM 77.0 °F 43.0 °F 30% 29.91 in 10.0 mi SSE 8.1 mph - N/A   Scattered Clouds
10:51 AM 79.0 °F 43.0 °F 28% 29.91 in 10.0 mi SSE 6.9 mph - N/A   Scattered Clouds
11:51 AM 81.0 °F 41.0 °F 24% 29.89 in 10.0 mi Calm Calm - N/A   Mostly Cloudy
12:51 PM 82.9 °F 42.1 °F 24% 29.88 in 10.0 mi Variable 3.5 mph - N/A   Mostly Cloudy
1:51 PM 82.0 °F 42.1 °F 24% 29.86 in 10.0 mi Variable 4.6 mph - N/A   Scattered Clouds
2:51 PM 84.0 °F 42.1 °F 23% 29.83 in 10.0 mi WNW 8.1 mph - N/A   Mostly Cloudy
3:51 PM 86.0 °F 41.0 °F 20% 29.81 in 10.0 mi SSW 6.9 mph - N/A   Mostly Cloudy
4:51 PM 84.9 °F 41.0 °F 21% 29.79 in 10.0 mi WSW 5.8 mph - N/A   Mostly Cloudy
5:51 PM 84.9 °F 41.0 °F 21% 29.78 in 10.0 mi SW 5.8 mph - N/A   Mostly Cloudy
6:51 PM 84.0 °F 42.1 °F 23% 29.78 in 10.0 mi West 11.5 mph - N/A   Scattered Clouds
7:51 PM 82.9 °F 43.0 °F 24% 29.80 in 10.0 mi West 12.7 mph 18.4 mph N/A   Scattered Clouds
8:51 PM 81.0 °F 42.1 °F 25% 29.82 in 10.0 mi West 12.7 mph - N/A   Partly Cloudy
9:51 PM 79.0 °F 42.1 °F 27% 29.84 in 10.0 mi WSW 8.1 mph - N/A   Partly Cloudy
10:51 PM 77.0 °F 44.1 °F 31% 29.84 in 10.0 mi West 9.2 mph - N/A   Partly Cloudy
11:51 PM 75.0 °F 43.0 °F 32% 29.86 in 10.0 mi WSW 8.1 mph - N/A   Clear